Regional Weather Roundup
Issued by NWS

Home | Current Version | Previous Version | Graphics & Text | Print | Product List | Glossary On
Versions: 1 2 3 4 5 6 7 8 9 10 11 12 13 14 15 16 17 18 19 20 21 22 23 24 25 26 27 28 29 30 31 32 33 34 35 36 37 38 39 40 41 42 43 44 45 46 47 48 49 50
986
ASUS43 KBIS 292102
RWRND

NORTH DAKOTA REGIONAL WEATHER ROUNDUP
NATIONAL WEATHER SERVICE BISMARCK ND
400 PM CDT FRI APR 29 2016

NOTE: "FAIR" INDICATES FEW OR NO CLOUDS BELOW 12,000 FEET WITH NO
SIGNIFICANT WEATHER AND/OR OBSTRUCTIONS TO VISIBILITY.


NDZ001>003-009>011-017-292200-
NORTHWEST NORTH DAKOTA

CITY           SKY/WX    TMP DP  RH WIND       PRES   REMARKS
WILLISTON      PTSUNNY   57  26  30 SE12      30.11F
MINOT          SUNNY     66  21  18 E14G21    30.13S
MINOT AFB      SUNNY     61  22  22 E13       30.13R
$$

NDZ018>021-031>035-040>046-292200-
SOUTHWEST NORTH DAKOTA

CITY           SKY/WX    TMP DP  RH WIND       PRES   REMARKS
BISMARCK       SUNNY     61  34  36 E16G22    30.11F
DICKINSON      PTSUNNY   55  26  32 E12       30.08S
GARRISON         N/A     61  22  22 E18       30.12S
HETTINGER ARPT CLOUDY    53  27  36 E13       30.11R
$$

NDZ004>008-012>016-024-026-027-054-292200-
NORTHEAST NORTH DAKOTA

CITY           SKY/WX    TMP DP  RH WIND       PRES   REMARKS
GRAND FORKS    MOSUNNY   63  32  31 NE17G28   30.13F
GRND FRKS AFB  SUNNY     63  30  29 NE17G23   30.13F
DEVILS LAKE    SUNNY     59  29  31 E17G24    30.15F
$$

NDZ022-023-025-028>030-036>039-047>053-292200-
SOUTHEAST NORTH DAKOTA

CITY           SKY/WX    TMP DP  RH WIND       PRES   REMARKS
FARGO          SUNNY     65  31  28 E10       30.09F
JAMESTOWN      SUNNY     61  32  33 E12G21    30.11F
$$





USA.gov is the U.S. government's official web portal to all federal, state and local government web resources and services.